Location: Hurecourt
(47.9030°N, 6.0653°E)
Time: 08:35:18
(UTC+00:00)

Resurs 1-4 Rocket - Pass Details

Date: 14 July 2020
Orbit: 799 x 814 km, 98.6° (Epoch: 14 August)

Event Time Altitude Azimuth Distance (km) Brightness Sun altitude
Rises 03:01:54 0° 2° (N) 3,350 6.1 -7.3°
Reaches altitude 10° 03:05:02 10° 343° (NNW) 2,412 5.0 -6.9°
Maximum altitude 03:08:19 17° 305° (NW) 1,964 4.0 -6.5°
Drops below altitude 10° 03:11:36 10° 266° (W) 2,398 4.1 -6.1°
Enters shadow 03:13:26 - 253° (WSW) 2,911 4.4 -5.9°
